EN

Hourly Weather Lacombe

Today, 28 July, Wednesday

Time Temperature Precipitation Wind Pressure Humidity
00:00 +14°C° 0.1 mm 1 mps 689 mmHg 62%
01:00 +13°C° 0.1 mm 1 mps 689 mmHg 66%
02:00 +12°C° 0.1 mm 1 mps 690 mmHg 70%
03:00 +12°C° 0.1 mm 1 mps 690 mmHg 75%
04:00 +11°C° 0.1 mm 1 mps 690 mmHg 79%
05:00 +13°C° 0 mm 1 mps 690 mmHg 75%
06:00 +15°C° 0 mm 2 mps 691 mmHg 72%
07:00 +17°C° 0 mm 3 mps 691 mmHg 68%
08:00 +20°C° 0 mm 3 mps 691 mmHg 56%
09:00 +22°C° 0 mm 4 mps 692 mmHg 44%
10:00 +26°C° 0 mm 4 mps 692 mmHg 32%
11:00 +27°C° 0 mm 4 mps 691 mmHg 31%
12:00 +28°C° 0 mm 4 mps 691 mmHg 31%
13:00 +29°C° 0 mm 4 mps 691 mmHg 31%
14:00 +30°C° 0 mm 3 mps 690 mmHg 31%
15:00 +30°C° 0 mm 3 mps 690 mmHg 30%
16:00 +30°C° 0 mm 3 mps 690 mmHg 30%
17:00 +28°C° 0 mm 2 mps 689 mmHg 35%
18:00 +26°C° 0 mm 2 mps 689 mmHg 40%
19:00 +24°C° 0 mm 2 mps 688 mmHg 46%
20:00 +23°C° 0 mm 2 mps 688 mmHg 48%
21:00 +20°C° 0 mm 2 mps 688 mmHg 51%
22:00 +19°C° 0 mm 2 mps 688 mmHg 53%
23:00 +18°C° 0.1 mm 2 mps 688 mmHg 59%

Tomorrow, 29 July, Thursday

Time Temperature Precipitation Wind Pressure Humidity
00:00 +18°C° 0.1 mm 1 mps 688 mmHg 64%
01:00 +16°C° 0.1 mm 1 mps 688 mmHg 70%
02:00 +15°C° 0.3 mm 1 mps 688 mmHg 73%
03:00 +15°C° 0.3 mm 1 mps 688 mmHg 77%
04:00 +15°C° 0.3 mm 1 mps 687 mmHg 81%
05:00 +16°C° 0.1 mm 1 mps 688 mmHg 80%
06:00 +17°C° 0.1 mm 2 mps 688 mmHg 80%
07:00 +18°C° 0.1 mm 2 mps 689 mmHg 79%
08:00 +20°C° 0 mm 3 mps 689 mmHg 70%
09:00 +24°C° 0 mm 3 mps 690 mmHg 62%
10:00 +26°C° 0 mm 3 mps 690 mmHg 53%
11:00 +27°C° 0 mm 3 mps 690 mmHg 49%
12:00 +28°C° 0 mm 3 mps 690 mmHg 45%
13:00 +30°C° 0 mm 3 mps 690 mmHg 41%
14:00 +30°C° 0 mm 3 mps 689 mmHg 39%
15:00 +31°C° 0 mm 3 mps 689 mmHg 37%
16:00 +31°C° 0 mm 3 mps 689 mmHg 35%
17:00 +29°C° 0 mm 4 mps 689 mmHg 41%
18:00 +27°C° 0 mm 4 mps 689 mmHg 47%
19:00 +25°C° 0 mm 5 mps 689 mmHg 53%
20:00 +21°C° 0.1 mm 4 mps 690 mmHg 65%
21:00 +18°C° 0.1 mm 3 mps 690 mmHg 76%
22:00 +15°C° 0.1 mm 2 mps 690 mmHg 88%
23:00 +14°C° 0.1 mm 3 mps 690 mmHg 88%

Day after tomorrow, 30 July, Friday

Time Temperature Precipitation Wind Pressure Humidity
00:00 +14°C° 0.1 mm 3 mps 691 mmHg 88%
01:00 +14°C° 0.1 mm 3 mps 691 mmHg 88%
02:00 +13°C° 0 mm 3 mps 691 mmHg 89%
03:00 +13°C° 0 mm 2 mps 691 mmHg 91%
04:00 +13°C° 0 mm 2 mps 691 mmHg 92%
05:00 +15°C° 0 mm 1 mps 691 mmHg 85%
06:00 +18°C° 0 mm 1 mps 692 mmHg 78%
07:00 +20°C° 0 mm 1 mps 692 mmHg 71%
08:00 +22°C° 0 mm 1 mps 693 mmHg 61%
09:00 +25°C° 0 mm 2 mps 693 mmHg 51%
10:00 +27°C° 0 mm 2 mps 693 mmHg 41%
11:00 +29°C° 0 mm 2 mps 693 mmHg 37%
12:00 +30°C° 0 mm 2 mps 693 mmHg 34%
13:00 +31°C° 0 mm 2 mps 693 mmHg 30%
14:00 +32°C° 0 mm 2 mps 692 mmHg 30%
15:00 +32°C° 0 mm 2 mps 692 mmHg 29%
16:00 +32°C° 0 mm 2 mps 692 mmHg 28%
17:00 +30°C° 0 mm 2 mps 692 mmHg 35%
18:00 +27°C° 0 mm 2 mps 691 mmHg 43%
19:00 +25°C° 0 mm 2 mps 691 mmHg 50%
20:00 +23°C° 0 mm 1 mps 691 mmHg 56%
21:00 +21°C° 0 mm 1 mps 691 mmHg 61%
22:00 +19°C° 0 mm 1 mps 691 mmHg 67%
23:00 +19°C° 0 mm 1 mps 692 mmHg 69%

31 July, Saturday

Time Temperature Precipitation Wind Pressure Humidity
00:00 +18°C° 0 mm 1 mps 692 mmHg 71%
01:00 +17°C° 0 mm 2 mps 692 mmHg 73%
02:00 +17°C° 0.1 mm 2 mps 692 mmHg 74%
03:00 +16°C° 0.1 mm 2 mps 692 mmHg 75%
04:00 +16°C° 0.1 mm 2 mps 691 mmHg 77%
05:00 +18°C° 0 mm 2 mps 692 mmHg 70%
06:00 +20°C° 0 mm 3 mps 692 mmHg 64%
07:00 +24°C° 0 mm 3 mps 693 mmHg 57%
08:00 +26°C° 0 mm 4 mps 693 mmHg 48%
09:00 +29°C° 0 mm 5 mps 693 mmHg 39%
10:00 +33°C° 0 mm 6 mps 693 mmHg 30%
11:00 +34°C° 0 mm 6 mps 693 mmHg 28%
12:00 +35°C° 0 mm 6 mps 693 mmHg 25%
13:00 +36°C° 0 mm 6 mps 693 mmHg 23%
14:00 +37°C° 0 mm 5 mps 692 mmHg 22%
15:00 +37°C° 0 mm 5 mps 692 mmHg 21%
16:00 +37°C° 0 mm 4 mps 692 mmHg 20%
17:00 +35°C° 0 mm 4 mps 691 mmHg 24%
18:00 +33°C° 0 mm 4 mps 691 mmHg 27%
19:00 +30°C° 0 mm 4 mps 690 mmHg 31%
20:00 +29°C° 0 mm 5 mps 691 mmHg 32%
21:00 +28°C° 0 mm 5 mps 691 mmHg 33%
22:00 +28°C° 0 mm 6 mps 691 mmHg 34%
23:00 +27°C° 0 mm 6 mps 691 mmHg 33%

1 August, Sunday

Time Temperature Precipitation Wind Pressure Humidity
00:00 +27°C° 0 mm 6 mps 691 mmHg 33%
01:00 +27°C° 0 mm 6 mps 691 mmHg 32%
02:00 +24°C° 0 mm 6 mps 690 mmHg 34%
03:00 +23°C° 0 mm 5 mps 690 mmHg 36%
04:00 +22°C° 0 mm 5 mps 690 mmHg 38%
05:00 +23°C° 0 mm 5 mps 690 mmHg 36%
06:00 +26°C° 0 mm 6 mps 690 mmHg 33%
07:00 +28°C° 0 mm 6 mps 690 mmHg 31%
08:00 +30°C° 0 mm 7 mps 690 mmHg 28%
09:00 +33°C° 0 mm 7 mps 690 mmHg 24%
10:00 +35°C° 0 mm 8 mps 690 mmHg 21%
11:00 +38°C° 0 mm 8 mps 690 mmHg 18%
12:00 +39°C° 0 mm 9 mps 690 mmHg 16%
13:00 +40°C° 0 mm 9 mps 690 mmHg 14%
14:00 +40°C° 0 mm 9 mps 689 mmHg 13%
15:00 +40°C° 0 mm 9 mps 689 mmHg 13%
16:00 +40°C° 0 mm 9 mps 688 mmHg 12%
17:00 +39°C° 0 mm 8 mps 688 mmHg 13%
18:00 +36°C° 0 mm 7 mps 688 mmHg 14%
19:00 +35°C° 0 mm 7 mps 687 mmHg 15%
20:00 +34°C° 0 mm 7 mps 688 mmHg 17%
21:00 +33°C° 0 mm 7 mps 688 mmHg 19%
22:00 +32°C° 0 mm 8 mps 688 mmHg 21%
23:00 +30°C° 0 mm 7 mps 688 mmHg 22%

2 August, Monday

Time Temperature Precipitation Wind Pressure Humidity
00:00 +29°C° 0 mm 6 mps 688 mmHg 22%
01:00 +29°C° 0 mm 5 mps 688 mmHg 23%
02:00 +26°C° 0 mm 5 mps 687 mmHg 28%
03:00 +23°C° 0 mm 4 mps 687 mmHg 33%
04:00 +21°C° 0 mm 3 mps 687 mmHg 38%
05:00 +22°C° 0 mm 3 mps 687 mmHg 41%
06:00 +24°C° 0 mm 3 mps 687 mmHg 44%
07:00 +25°C° 0 mm 3 mps 687 mmHg 47%
08:00 +25°C° 0 mm 3 mps 688 mmHg 51%
09:00 +26°C° 0 mm 4 mps 688 mmHg 54%
10:00 +26°C° 0 mm 4 mps 688 mmHg 58%
11:00 +26°C° 0 mm 4 mps 688 mmHg 60%
12:00 +25°C° 0 mm 4 mps 687 mmHg 62%
13:00 +25°C° 0 mm 4 mps 687 mmHg 64%
14:00 +27°C° 0 mm 3 mps 687 mmHg 56%
15:00 +28°C° 0 mm 2 mps 687 mmHg 49%
16:00 +30°C° 0 mm 1 mps 687 mmHg 41%
17:00 +28°C° 0 mm 1 mps 687 mmHg 46%
18:00 +27°C° 0 mm 1 mps 686 mmHg 50%
19:00 +25°C° 0 mm 1 mps 686 mmHg 55%
20:00 +24°C° 0 mm 1 mps 686 mmHg 61%
21:00 +22°C° 0 mm 1 mps 686 mmHg 67%
22:00 +19°C° 0 mm 0 mps 685 mmHg 72%
23:00 +20°C° 0 mm 1 mps 685 mmHg 75%
Show more